{"data":{"norad_id":45375,"epoch":"2026-09-19T14:18:06.998112Z","epoch_age_seconds":92368,"freshness":"FRESH","line1":"1 45375U 20019R   26262.59591433  .00069913  00000+0  38278-3 0  9991","line2":"2 45375  53.0391 276.4929 0006984  44.9846 315.1739 15.79178651360354","mean_motion":15.79178651,"eccentricity":0.0006984,"inclination_deg":53.0391,"raan_deg":276.4929,"arg_perigee_deg":44.9846,"mean_anomaly_deg":315.1739,"bstar":0.00038278,"rev_number":36035,"period_min":91.186643074749,"perigee_km":328.07967745212,"apogee_km":337.4534675622,"semimajor_km":6710.9035725072,"source":"CELESTRAK","updated_at":"2026-09-20T09:00:38.231137Z"}}